Simultaneous Nadir Overpasses (SNOs) Predictions

Prediction of SNOs between METOP-B and TERRA Satellite Orbit:

Table of predicted SNOs for the next 14.0 days since TLE Epoch: 10/22/2022
Index Date (METOP-B) Time (METOP-B) Lat,Lon (METOP-B) SZA (METOP-B ) Date (TERRA) Time (TERRA) Lat,Lon (TERRA) SZA (TERRA ) Distance(km) Time Diff (sec)
1 10/23/2022 21:07:28 81.03, -99.30 94.82 10/23/2022 21:07:58 81.03, -99.38 94.82 1.44 30
2 10/23/2022 21:58:07 -81.06, 68.85 85.06 10/23/2022 21:57:20 -81.06, 68.73 85.10 2.15 47
3 10/26/2022 13:19:09 81.02, 17.50 95.71 10/26/2022 13:19:46 81.02, 17.52 95.73 0.37 37
4 10/26/2022 14:09:48 -81.05,-174.32 84.17 10/26/2022 14:09:08 -81.06,-174.32 84.19 0.21 40
5 10/29/2022 05:30:48 81.02, 134.63 96.62 10/29/2022 05:31:32 81.03, 134.66 96.64 0.63 44
6 10/29/2022 06:21:28 -81.04, -57.55 83.31 10/29/2022 06:20:55 -81.04, -57.49 83.32 1.05 33
7 10/31/2022 21:42:28 81.02,-108.29 97.49 10/31/2022 21:43:19 81.02,-108.33 97.51 0.79 51
8 10/31/2022 22:33:08 -81.04, 59.56 82.44 10/31/2022 22:32:42 -81.04, 59.58 82.45 0.41 26
9 11/03/2022 13:54:08 81.02, 8.76 98.32 11/03/2022 13:55:06 81.01, 8.57 98.32 3.25 58



Historial Predications of SNOs between METOP-B and TERRA
